Погода в Бокове

Россия / Тюменская область     56°48′09″N   70°15′50″E
темп.,
°C
ветер,
м/с
пор.,
м/с
влажн.,
%
обл.,
%
осадки,
мм/ч
давл.,
гПа
погр.,
м
28 ноября, вс
вс2823:00−2зюз7139099 0.1 1023770
02:00−4зюз6139099 0.0 1025451
05:00−5зюз5119292 0.0 1026289
08:00−7юз4109469 0.0 1027195
11:00−6юз41094100 0.0 1029255
14:00−5юз499394 0.0 1029246
17:00−7ююз4109433 0.0 1030185
20:00−10ююз4109136 0.0 1029164
29 ноября, пн
пн2923:00−9ююз41282100 0.0 1028224
02:00−7ююз51283100 0.0 1027274
05:00−6ююз51283100 0.0 1026282
08:00−7ююз5118198 0.0 1025248
11:00−6ююз5128088 0.0 1025279
14:00−6ююз5128071 0.0 1024272
17:00−8ююз4118540 0.0 1023179
20:00−8юз411855 0.0 1023166
30 ноября, вт
вт3023:00−9юз49855 0.0 1022139
02:00−10юз38868 0.0 1022113
05:00−10юз358995 0.0 102280
08:00−5ююз3591100 0.0 1021113
11:00−3ююз3691100 0.0 1021161
14:00−2ююз3692100 0.0 1021172
17:00−2ююз3693100 0.0 1021157
20:00−6ююз379315 0.0 1021113
1 декабря, ср
ср123:00−9ю3987100 0.0 1020140
02:00−9ю51381100 0.0 1018227
05:00−8ю61580100 0.0 1017266
08:00−5ю61681100 0.0 1015340
11:00−3ююз71678100 0.0 1015398
14:00−2ююз61482100 0.1 1015347
17:00−1ююз61485100 0.1 1014367
20:00−1ююз61483100 0.0 1013332
2 декабря, чт
чт223:00−2ю51381100 0.0 1012292
02:00−4ю51380100 0.0 1011256
05:00−3ююв51378100 0.0 1009252
08:00−2ю71679100 0.0 1006334
11:000ю61683100 0.0 1004371
14:00+1ююз71794100 0.1 1003563
17:000ююз61388100 0.1 1002378
20:000ююз61192100 0.0 1001364